CW6888 Weather Reports


Display with metric or nautical units.
time (UTC)temp
F
wind
direction
speed
MPH
gust
MPH
rain 1hr
in
rain 24hr
in
rain mn
in
humidity
%
barometer
mb
20260508171832 63 35 3.0 11.0 0.00 0.00 0.00 47 1013.8
20260508170818 63 157 4.0 12.0 0.00 0.00 0.00 46 1013.8
20260508165833 62 144 4.0 10.0 0.00 0.00 0.00 48 1013.8
20260508164817 62 29 4.0 10.0 0.00 0.00 0.00 48 1013.8
20260508163858 61 169 3.0 10.0 0.00 0.00 0.00 47 1013.8
20260508162829 62 25 3.0 11.0 0.00 0.00 0.00 49 1013.9
20260508161842 61 187 4.0 16.0 0.00 0.00 0.00 49 1014.1
20260508160824 61 87 5.0 17.0 0.00 0.00 0.00 47 1014.2
20260508155838 60 205 5.0 11.0 0.00 0.00 0.00 46 1014.2
20260508154851 60 215 4.0 11.0 0.00 0.00 0.00 52 1014.4
20260508153814 60 277 7.0 15.0 0.00 0.00 0.00 48 1014.4
20260508152827 60 294 5.0 9.0 0.00 0.00 0.00 51 1014.6
20260508151848 59 184 5.0 10.0 0.00 0.00 0.00 52 1014.5
20260508150839 58 83 3.0 11.0 0.00 0.00 0.00 52 1014.7
20260508145825 58 161 3.0 12.0 0.00 0.00 0.00 51 1014.8
20260508144836 57 160 5.0 8.0 0.00 0.00 0.00 52 1014.9
20260508143819 56 225 4.0 10.0 0.00 0.00 0.00 53 1014.9
20260508142831 56 208 4.0 8.0 0.00 0.00 0.00 53 1015.1
20260508141842 55 170 3.0 10.0 0.00 0.00 0.00 54 1015.1
20260508140814 55 54 4.0 10.0 0.00 0.00 0.00 57 1015.2
20260508135817 54 178 2.0 8.0 0.00 0.00 0.00 58 1015.2
20260508134829 54 148 1.0 6.0 0.00 0.00 0.00 59 1015.3
20260508133821 54 117 2.0 4.0 0.00 0.00 0.00 59 1015.3
20260508132833 53 62 2.0 5.0 0.00 0.00 0.00 64 1015.4
20260508131825 52 46 1.0 3.0 0.00 0.00 0.00 65 1015.5
20260508130818 52 130 1.0 8.0 0.00 0.00 0.00 66 1015.4
20260508125823 51 169 0.0 5.0 0.00 0.00 0.00 66 1015.4
20260508124815 50 173 1.0 4.0 0.00 0.00 0.00 69 1015.5
20260508123848 49 192 0.0 4.0 0.00 0.00 0.00 71 1015.5
20260508122819 48 207 2.0 4.0 0.00 0.00 0.00 73 1015.5
20260508121836 47 167 2.0 3.0 0.00 0.00 0.00 77 1015.5
20260508120828 46 223 0.0 1.0 0.00 0.00 0.00 79 1015.5
20260508115832 45 175 0.0 1.0 0.00 0.00 0.00 79 1015.3
20260508114824 43 360 1.0 3.0 0.00 0.00 0.00 81 1015.3
20260508113815 42 360 0.0 0.0 0.00 0.00 0.00 83 1015.2
20260508112827 42 360 0.0 0.0 0.00 0.00 0.00 83 1015.2
20260508111819 42 65 0.0 0.0 0.00 0.00 0.00 83 1015.2
20260508110831 41 65 0.0 0.0 0.00 0.00 0.00 83 1014.9
20260508105818 40 65 0.0 0.0 0.00 0.02 0.00 83 1014.8
20260508104832 40 65 0.0 0.0 0.00 0.02 0.00 83 1014.6
20260508103815 40 65 0.0 0.0 0.00 0.02 0.00 82 1014.6
20260508102829 41 65 0.0 0.0 0.00 0.02 0.00 81 1014.5
20260508101824 41 65 0.0 0.0 0.00 0.02 0.00 80 1014.4
20260508100822 42 65 0.0 0.0 0.00 0.02 0.00 80 1014.3
20260508095845 42 65 0.0 0.0 0.00 0.02 0.00 79 1014.3
20260508094817 42 65 0.0 0.0 0.00 0.02 0.00 78 1014.2
20260508093829 43 65 0.0 0.0 0.00 0.02 0.00 77 1014.2
20260508092821 44 65 0.0 0.0 0.00 0.02 0.00 76 1014.1
20260508091833 45 65 0.0 0.0 0.00 0.02 0.00 72 1014.1
20260508090824 46 65 0.0 0.0 0.00 0.02 0.00 70 1014.0
20260508085831 47 65 0.0 0.0 0.00 0.02 0.00 69 1013.9
20260508084821 47 65 0.0 0.0 0.00 0.02 0.00 69 1014.0
20260508083854 47 65 0.0 0.0 0.00 0.02 0.00 68 1013.9
20260508082825 47 68 0.0 0.0 0.00 0.02 0.00 68 1013.9
20260508081816 47 360 0.0 0.0 0.00 0.02 0.00 68 1013.8
20260508080828 47 360 0.0 0.0 0.00 0.02 0.00 68 1013.8
20260508075824 48 360 0.0 0.0 0.00 0.03 0.00 67 1013.7
20260508074815 48 340 0.0 0.0 0.00 0.03 0.00 67 1013.5
20260508073827 48 350 0.0 2.0 0.00 0.03 0.00 66 1013.3
20260508072835 49 351 0.0 3.0 0.00 0.03 0.00 65 1013.2
20260508071827 49 360 1.0 6.0 0.00 0.03 0.00 64 1013.2
20260508070838 50 325 3.0 5.0 0.00 0.03 0.00 64 1013.0
20260508065844 50 52 5.0 10.0 0.00 0.06 0.00 63 1013.0
20260508064815 51 30 5.0 9.0 0.00 0.06 0.00 62 1013.0
20260508063843 51 25 6.0 13.0 0.00 0.06 0.00 61 1012.9
20260508062831 51 54 7.0 16.0 0.00 0.06 0.00 61 1012.8
20260508061822 52 38 6.0 12.0 0.00 0.06 0.00 61 1012.7
20260508060816 52 5 7.0 13.0 0.00 0.06 0.00 62 1012.6
20260508055819 52 88 7.0 14.0 0.00 0.07 0.00 63 1012.5
20260508054831 52 29 5.0 11.0 0.00 0.07 0.00 64 1012.4
20260508053823 51 26 6.0 10.0 0.00 0.07 0.00 68 1012.4
20260508052835 50 9 4.0 10.0 0.00 0.07 0.00 73 1012.1
20260508051818 49 42 2.0 4.0 0.00 0.07 0.00 81 1012.0
20260508050840 49 173 0.0 0.0 0.00 0.07 0.00 82 1011.8
20260508045844 49 173 0.0 0.0 0.00 0.09 0.00 82 1011.7
20260508044835 50 173 0.0 0.0 0.00 0.09 0.00 80 1011.5
20260508043825 51 173 0.0 0.0 0.00 0.09 0.00 80 1011.4
20260508042837 51 360 0.0 0.0 0.00 0.09 0.00 79 1011.3
20260508041820 52 173 0.0 0.0 0.00 0.09 0.00 79 1011.2
20260508040831 52 360 0.0 0.0 0.00 0.09 0.00 79 1011.2
20260508035816 52 171 0.0 1.0 0.00 0.11 0.09 78 1011.1
20260508034828 53 360 1.0 2.0 0.00 0.11 0.09 77 1011.1
20260508033820 53 169 2.0 4.0 0.00 0.11 0.09 77 1011.1
20260508032815 53 167 1.0 2.0 0.00 0.11 0.09 76 1011.0
20260508031827 53 167 0.0 2.0 0.00 0.11 0.09 76 1010.9
20260508030818 54 167 0.0 0.0 0.00 0.11 0.09 75 1011.0
20260508025820 54 167 1.0 4.0 0.00 0.11 0.09 75 1010.9
20260508024853 54 138 1.0 6.0 0.00 0.11 0.09 74 1011.0
20260508023825 54 225 2.0 3.0 0.00 0.11 0.09 74 1011.0
20260508022816 54 235 1.0 3.0 0.00 0.11 0.09 73 1011.0
20260508021829 55 257 1.0 5.0 0.00 0.11 0.09 73 1011.0
20260508020840 55 223 2.0 4.0 0.00 0.11 0.09 72 1011.0
20260508015823 55 211 1.0 4.0 0.00 0.13 0.09 72 1010.9
20260508014836 55 233 2.0 4.0 0.00 0.13 0.09 71 1010.7
20260508013826 55 233 2.0 4.0 0.00 0.13 0.09 71 1010.7
20260508012819 55 209 1.0 3.0 0.00 0.13 0.09 70 1010.6
20260508011829 56 195 1.0 4.0 0.00 0.13 0.09 70 1010.5
20260508010821 56 132 0.0 3.0 0.00 0.13 0.09 69 1010.4
20260508005828 56 115 0.0 0.0 0.00 0.13 0.09 68 1010.1
20260508004819 56 109 0.0 0.0 0.00 0.13 0.09 67 1010.0
20260508003830 57 98 0.0 0.0 0.00 0.13 0.09 63 1009.8
20260508002824 57 98 0.0 0.0 0.00 0.13 0.09 61 1009.6
20260508001832 58 78 0.0 0.0 0.00 0.13 0.09 55 1009.6
20260508000815 59 78 0.0 0.0 0.00 0.13 0.09 54 1009.5
20260507235827 59 78 0.0 0.0 0.00 0.13 0.09 53 1009.4
20260507234834 60 78 0.0 0.0 0.00 0.13 0.09 51 1009.3
20260507233820 61 78 0.0 0.0 0.00 0.13 0.09 48 1009.1
20260507232817 61 78 0.0 0.0 0.00 0.13 0.09 49 1009.1
20260507231830 62 78 0.0 0.0 0.00 0.13 0.09 52 1009.0
20260507230823 62 78 0.0 2.0 0.00 0.13 0.09 52 1008.9
20260507225830 62 78 1.0 4.0 0.00 0.13 0.09 52 1008.9
20260507224843 62 58 2.0 6.0 0.00 0.13 0.09 49 1008.9
20260507223813 63 33 2.0 4.0 0.00 0.13 0.09 45 1008.9
20260507222824 63 23 2.0 9.0 0.00 0.13 0.09 44 1008.7
20260507221832 64 5 2.0 6.0 0.00 0.13 0.09 45 1008.7
20260507220826 64 146 1.0 5.0 0.00 0.13 0.09 45 1008.7
20260507215815 63 15 2.0 9.0 0.00 0.13 0.09 46 1008.8
20260507214831 63 151 1.0 8.0 0.00 0.13 0.09 43 1008.8
20260507213823 63 46 4.0 8.0 0.00 0.13 0.09 43 1008.9
20260507212835 63 29 6.0 11.0 0.00 0.13 0.09 41 1008.9
20260507211825 63 5 1.0 10.0 0.00 0.13 0.09 45 1009.0
20260507210838 64 40 5.0 12.0 0.00 0.13 0.09 46 1009.1
20260507205822 64 30 6.0 10.0 0.00 0.13 0.09 48 1009.1
20260507204835 64 17 2.0 6.0 0.00 0.13 0.09 46 1008.9
20260507203818 63 34 3.0 9.0 0.00 0.13 0.09 45 1008.9
20260507202840 63 25 2.0 9.0 0.00 0.13 0.09 47 1008.9
20260507201823 63 225 4.0 8.0 0.00 0.13 0.09 48 1009.0
20260507200835 63 74 3.0 10.0 0.00 0.13 0.09 45 1009.0
20260507195845 62 34 5.0 12.0 0.00 0.13 0.09 47 1009.2
20260507194817 63 39 6.0 11.0 0.00 0.13 0.09 48 1009.3
20260507193832 62 170 4.0 11.0 0.00 0.13 0.09 53 1009.4
20260507192816 62 25 4.0 10.0 0.00 0.13 0.09 51 1009.6
20260507191829 62 39 5.0 11.0 0.00 0.13 0.09 51 1009.7
20260507190821 62 17 5.0 10.0 0.00 0.13 0.09 47 1009.8
20260507185827 62 86 2.0 10.0 0.00 0.14 0.09 50 1009.9
20260507184821 61 311 2.0 14.0 0.00 0.14 0.09 55 1009.9
20260507183816 61 11 8.0 13.0 0.00 0.14 0.09 51 1010.1
20260507182830 60 100 2.0 8.0 0.00 0.14 0.09 50 1010.2
20260507181825 60 360 6.0 10.0 0.00 0.14 0.09 52 1010.4
20260507180839 60 335 6.0 12.0 0.00 0.14 0.09 55 1010.6
20260507175823 60 12 3.0 11.0 0.00 0.14 0.09 55 1010.7
20260507174835 59 43 7.0 12.0 0.00 0.14 0.09 54 1010.7
20260507173828 59 346 5.0 9.0 0.00 0.14 0.09 56 1010.7
20260507172839 59 38 5.0 11.0 0.00 0.14 0.09 54 1010.8